TimeEST,TemperatureF,Dew PointF,Humidity,Sea Level PressureIn,VisibilityMPH,Wind Direction,Wind SpeedMPH,Gust SpeedMPH,PrecipitationIn,Events,Conditions,WindDirDegrees,DateUTC
12:13 AM,48.2,44.6,87,29.98,2.0,East,5.8,-,N/A,,Overcast,100,2013-01-17 05:13:00
12:22 AM,48.2,44.6,87,29.98,1.8,East,5.8,-,N/A,,Overcast,80,2013-01-17 05:22:00
12:31 AM,48.2,42.8,82,30.00,2.5,ESE,5.8,-,N/A,,Haze,110,2013-01-17 05:31:00
12:43 AM,46.4,42.8,87,30.00,1.5,ESE,3.5,-,N/A,,Overcast,120,2013-01-17 05:43:00
12:54 AM,46.9,43.0,86,30.01,1.2,East,3.5,-,N/A,,Overcast,100,2013-01-17 05:54:00
1:32 AM,46.4,42.8,87,30.01,0.8,Calm,Calm,-,N/A,,Overcast,0,2013-01-17 06:32:00
1:46 AM,46.4,42.8,87,30.03,1.0,NNE,3.5,-,0.00,Rain,Light Rain,20,2013-01-17 06:46:00
1:54 AM,46.9,43.0,86,30.04,1.2,Calm,Calm,-,0.03,Rain,Rain,0,2013-01-17 06:54:00
2:06 AM,46.4,42.8,87,30.03,1.2,Calm,Calm,-,0.02,Rain,Light Rain,0,2013-01-17 07:06:00
2:15 AM,46.4,42.8,87,30.03,1.8,Calm,Calm,-,0.03,Rain,Light Rain,0,2013-01-17 07:15:00
2:18 AM,46.4,42.8,87,30.03,2.0,Calm,Calm,-,0.04,Rain,Light Rain,0,2013-01-17 07:18:00
2:26 AM,46.4,42.8,87,30.02,2.5,Calm,Calm,-,0.05,Rain,Light Rain,0,2013-01-17 07:26:00
2:38 AM,46.4,42.8,87,30.01,3.0,Calm,Calm,-,0.05,Rain,Light Rain,0,2013-01-17 07:38:00
2:54 AM,46.9,43.0,86,30.02,5.0,Calm,Calm,-,0.06,Rain,Light Rain,0,2013-01-17 07:54:00
3:18 AM,46.4,42.8,87,30.02,2.0,Variable,3.5,-,0.02,Rain,Light Rain,0,2013-01-17 08:18:00
3:45 AM,48.2,42.8,82,30.01,3.0,North,-9999.0,-,0.05,Rain,Light Rain,0,2013-01-17 08:45:00
3:54 AM,48.0,43.0,83,30.01,3.0,North,-9999.0,-,0.06,Rain,Light Rain,0,2013-01-17 08:54:00
4:24 AM,48.2,42.8,82,30.01,1.8,North,-9999.0,-,N/A,Rain,Rain,0,2013-01-17 09:24:00
4:39 AM,48.2,42.8,82,30.00,2.5,North,-9999.0,-,0.05,Rain,Light Rain,0,2013-01-17 09:39:00
4:54 AM,48.0,44.1,86,30.00,3.0,NNE,15.0,54.1,0.07,Rain,Light Rain,20,2013-01-17 09:54:00
5:17 AM,48.2,44.6,87,30.01,2.0,Calm,Calm,-,0.03,Rain,Light Rain,0,2013-01-17 10:17:00
5:20 AM,48.2,44.6,87,30.01,2.0,Calm,Calm,-,0.03,Rain,Light Rain,0,2013-01-17 10:20:00
5:54 AM,48.0,44.1,86,30.02,2.0,Calm,Calm,-,0.11,Rain,Rain,0,2013-01-17 10:54:00
6:05 AM,48.2,44.6,87,30.02,2.0,ENE,3.5,-,0.02,Rain,Rain,60,2013-01-17 11:05:00
6:11 AM,48.2,44.6,87,30.03,3.0,NE,3.5,-,0.02,Rain,Light Rain,40,2013-01-17 11:11:00
6:54 AM,48.0,43.0,83,30.04,4.0,ENE,9.2,-,0.05,Rain,Light Rain,70,2013-01-17 11:54:00
7:19 AM,48.2,42.8,82,30.05,2.5,ENE,8.1,-,0.02,Rain,Light Rain,60,2013-01-17 12:19:00
7:54 AM,48.0,43.0,83,30.06,2.5,ENE,9.2,-,0.04,Rain,Light Rain,60,2013-01-17 12:54:00
8:01 AM,48.2,42.8,82,30.06,4.0,ENE,9.2,-,0.00,Rain,Light Rain,60,2013-01-17 13:01:00
8:54 AM,46.9,43.0,86,30.09,3.0,ENE,10.4,-,0.04,Rain,Light Rain,60,2013-01-17 13:54:00
9:23 AM,46.4,42.8,87,30.10,1.8,ENE,11.5,-,0.02,Rain,Rain,70,2013-01-17 14:23:00
9:38 AM,46.4,42.8,87,30.11,2.5,ENE,9.2,-,0.04,Rain,Light Rain,60,2013-01-17 14:38:00
9:54 AM,46.9,42.1,83,30.12,1.2,ENE,8.1,-,0.07,Rain,Rain,60,2013-01-17 14:54:00
10:21 AM,46.4,42.8,87,30.11,2.5,ENE,10.4,-,0.06,Rain,Light Rain,70,2013-01-17 15:21:00
10:54 AM,46.0,41.0,83,30.11,1.8,ENE,9.2,18.4,0.07,Rain,Light Rain,70,2013-01-17 15:54:00
11:08 AM,46.4,39.2,76,30.09,2.0,ENE,11.5,-,0.02,Rain,Light Rain,60,2013-01-17 16:08:00
11:15 AM,46.4,41.0,81,30.09,1.8,ENE,11.5,-,0.02,Rain,Light Rain,60,2013-01-17 16:15:00
11:17 AM,44.6,39.2,81,30.09,2.0,ENE,15.0,21.9,0.03,Rain,Light Rain,60,2013-01-17 16:17:00
11:54 AM,45.0,39.0,80,30.09,2.0,NE,11.5,18.4,0.05,Rain,Light Rain,50,2013-01-17 16:54:00
12:00 PM,44.6,39.2,81,30.09,1.5,NE,8.1,-,0.01,Rain,Light Rain,50,2013-01-17 17:00:00
12:16 PM,44.6,39.2,81,30.07,1.5,NE,10.4,-,0.02,Rain,Light Rain,50,2013-01-17 17:16:00
12:32 PM,44.6,39.2,81,30.06,3.0,NE,10.4,-,0.03,Rain,Light Rain,50,2013-01-17 17:32:00
12:54 PM,45.0,39.9,82,30.06,3.0,NE,12.7,-,0.03,Rain,Light Rain,50,2013-01-17 17:54:00
1:07 PM,44.6,39.2,81,30.06,2.5,NE,6.9,-,0.00,Rain,Light Rain,50,2013-01-17 18:07:00
1:21 PM,44.6,39.2,81,30.04,1.8,NE,8.1,18.4,0.00,Rain,Light Rain,50,2013-01-17 18:21:00
1:29 PM,44.6,39.2,81,30.04,2.5,NE,12.7,19.6,N/A,Rain,Light Rain,50,2013-01-17 18:29:00
1:36 PM,44.6,39.2,81,30.04,6.0,NE,12.7,19.6,0.00,,Haze,40,2013-01-17 18:36:00
1:44 PM,44.6,37.4,76,30.05,10.0,NE,9.2,19.6,0.00,,Overcast,40,2013-01-17 18:44:00
1:54 PM,44.1,37.9,79,30.04,10.0,NNE,10.4,17.3,0.00,,Overcast,30,2013-01-17 18:54:00
2:54 PM,42.1,36.0,79,30.06,2.5,North,11.5,20.7,0.01,Rain,Light Rain,10,2013-01-17 19:54:00
3:03 PM,42.8,37.4,81,30.05,2.0,NNE,10.4,-,0.00,Rain,Light Rain,20,2013-01-17 20:03:00
3:16 PM,42.8,37.4,81,30.05,3.0,NNE,9.2,18.4,0.00,,Haze,30,2013-01-17 20:16:00
3:25 PM,42.8,37.4,81,30.05,4.0,NNE,12.7,19.6,0.00,,Haze,30,2013-01-17 20:25:00
3:54 PM,42.1,37.0,82,30.05,4.0,NNE,11.5,-,0.00,Rain,Light Rain,30,2013-01-17 20:54:00
4:34 PM,42.8,35.6,76,30.06,2.5,NE,13.8,21.9,0.01,Rain,Light Rain,40,2013-01-17 21:34:00
4:42 PM,41.0,35.6,81,30.06,3.0,NNE,13.8,23.0,0.01,Rain,Light Rain,30,2013-01-17 21:42:00
4:54 PM,41.0,36.0,82,30.07,4.0,NNE,12.7,20.7,0.01,,Haze,20,2013-01-17 21:54:00
5:11 PM,41.0,35.6,81,30.07,7.0,NE,13.8,-,0.00,Rain,Light Rain,40,2013-01-17 22:11:00
5:40 PM,41.0,35.6,81,30.06,5.0,NNE,12.7,20.7,0.01,Rain,Light Rain,20,2013-01-17 22:40:00
5:54 PM,41.0,36.0,82,30.07,7.0,NNE,11.5,21.9,0.01,,Overcast,30,2013-01-17 22:54:00
6:22 PM,41.0,35.6,81,30.05,2.5,NE,13.8,18.4,0.02,Rain,Light Rain,40,2013-01-17 23:22:00
6:36 PM,41.0,35.6,81,30.04,3.0,NNE,15.0,21.9,0.02,Rain,Light Rain,30,2013-01-17 23:36:00
6:54 PM,41.0,36.0,82,30.08,3.0,NNE,9.2,-,0.03,Rain,Light Rain,20,2013-01-17 23:54:00
7:03 PM,41.0,35.6,81,30.07,2.5,NNE,12.7,19.6,0.01,Rain,Light Rain,20,2013-01-18 00:03:00
7:22 PM,41.0,35.6,81,30.06,3.0,NNE,12.7,19.6,0.02,Rain,Light Rain,20,2013-01-18 00:22:00
7:54 PM,39.9,35.1,83,30.05,4.0,NNE,10.4,-,0.03,Rain,Light Rain,30,2013-01-18 00:54:00
8:17 PM,39.2,35.6,87,30.03,2.0,NNE,10.4,19.6,N/A,Rain,Rain,30,2013-01-18 01:17:00
8:54 PM,39.0,34.0,82,30.04,4.0,NNE,8.1,18.4,0.09,Rain,Light Rain,20,2013-01-18 01:54:00
9:40 PM,37.4,33.8,87,30.09,2.5,North,5.8,-,0.12,Rain,Rain,10,2013-01-18 02:40:00
9:54 PM,36.0,30.9,82,30.04,2.0,NNE,6.9,-,0.19,Snow,Light Snow,20,2013-01-18 02:54:00
10:01 PM,35.6,30.2,81,30.02,1.8,NNE,8.1,-,N/A,Snow,Light Snow,20,2013-01-18 03:01:00
10:54 PM,35.1,30.9,85,30.01,1.0,North,-9999.0,-,0.15,Snow,Light Snow,0,2013-01-18 03:54:00
11:54 PM,35.1,30.9,85,30.06,1.0,North,-9999.0,-,0.13,Snow,Light Snow,0,2013-01-18 04:54:00